Zurück zum Katalog

STARLINK-33686

AktivKommunikationVLEO
NORAD 63422·PAYLOAD·🇺🇸 United States

Gestartet Mar 31, 2025 von Cape Canaveral Space Force Station

Loading…

Nächste Überflüge (nächste 24 Stunden)

TLE

AktuellSource: CelesTrak SupGP

Epoche: Sep 15, 2026, 02:50 UTC

1 63422C 25065Z   26258.11854167  .00055964  00000+0  20270-2 0  2580
2 63422  43.0016 117.3141 0001868 274.9084 298.7630 15.27549336    19

Verfolge STARLINK-33686 in Echtzeit mit AllMySat

Download on the App Store